Craig, CO

2:35 AM MST on February 23, 2017 (GMT -0700)
Craig-Moffat

Weather History for KCAG - December, 2012

Change the Weather History Date:

Tuesday, December 4, 2012

  Actual Average Record
Temperature  
Mean Temperature 28 °F 21 °F  
Max Temperature 43 °F 34 °F 55 °F (1998)
Min Temperature 13 °F 9 °F -22 °F (2013)
Degree Days  
Heating Degree Days 37 44  
Month to date heating degree days 119 172  
Since 1 July heating degree days 1838 2257  
Cooling Degree Days 0 0  
Month to date cooling degree days 0 0  
Year to date cooling degree days 344 142  
Moisture  
Dew Point 17 °F    
Average Humidity 64    
Maximum Humidity 92    
Minimum Humidity 36    
Precipitation  
Precipitation 0.00 in 0.04 in 0.20 in (2008)
Month to date precipitation 0.20 0.15  
Year to date precipitation 6.33 15.21  
Sea Level Pressure  
Sea Level Pressure 30.51 in    
Wind  
Wind Speed 3 mph (SE)    
Max Wind Speed 14 mph    
Max Gust Speed 16 mph    
Visibility 10 miles    
Events      
T = Trace of Precipitation, MM = Missing Value Source: NWS Daily Summary

Daily Weather History Graph

Daily Weather History Graph

Search for Another Location

Airport or City:

Trip Planner

Search our weather history database for the weather conditions in past years. The results will help you decide how hot, cold, wet, or windy it might be!

Date:

Astronomy

Dec. 04, 2012 Rise Set
Actual Time 7:17 AM MST 4:43 PM MST
Civil Twilight 6:47 AM MST 5:13 PM MST
Nautical Twilight 6:13 AM MST 5:47 PM MST
Astronomical Twilight 5:40 AM MST 6:20 PM MST
Moon 10:34 PM MST (12/4) 11:12 AM MST (12/4)
Length of Visible Light 10h 26m
Length of Day
9h 25m
Waning Gibbous, 69% of the Moon is Illuminated
Dec 4
Waning Gibbous
Dec 6
Last Quarter
Dec 13
New
Dec 19
First Quarter
Dec 28
Full

Hourly Weather History & Observations

Time (MST) Temp. Windchill Dew Point Humidity Pressure Visibility Wind Dir Wind Speed Gust Speed Precip Events Conditions
12:53 AM 17.1 °F - 12.9 °F 84% 30.46 in 10.0 mi Calm Calm - N/A   Clear
1:53 AM 15.1 °F 9.4 °F 10.9 °F 84% 30.49 in 10.0 mi SSW 3.5 mph - N/A   Clear
2:53 AM 15.1 °F 9.4 °F 10.9 °F 84% 30.51 in 10.0 mi SW 3.5 mph - N/A   Clear
3:53 AM 14.0 °F - 10.0 °F 84% 30.53 in 10.0 mi Calm Calm - N/A   Clear
4:53 AM 14.0 °F 8.2 °F 10.0 °F 84% 30.52 in 10.0 mi SW 3.5 mph - N/A   Clear
5:53 AM 12.9 °F - 10.0 °F 88% 30.58 in 10.0 mi Calm Calm - N/A   Clear
6:53 AM 14.0 °F - 10.0 °F 84% 30.60 in 10.0 mi Calm Calm - N/A   Clear
7:53 AM 19.0 °F - 14.0 °F 81% 30.59 in 10.0 mi Calm Calm - N/A   Clear
8:53 AM 21.9 °F - 17.1 °F 82% 30.58 in 10.0 mi Calm Calm - N/A   Clear
9:53 AM 27.0 °F 23.0 °F 21.0 °F 78% 30.58 in 10.0 mi WSW 3.5 mph - N/A   Clear
10:53 AM 34.0 °F 28.0 °F 21.0 °F 59% 30.53 in 10.0 mi NE 6.9 mph - N/A   Clear
11:53 AM 36.0 °F 29.0 °F 21.9 °F 57% 30.52 in 10.0 mi ESE 9.2 mph - N/A   Mostly Cloudy
12:53 PM 37.9 °F 32.1 °F 19.9 °F 48% 30.50 in 10.0 mi ENE 8.1 mph - N/A   Overcast
1:53 PM 43.0 °F 37.7 °F 17.1 °F 35% 30.45 in 10.0 mi East 9.2 mph - N/A   Scattered Clouds
2:53 PM 42.1 °F 35.7 °F 18.0 °F 38% 30.45 in 10.0 mi ENE 11.5 mph - N/A   Clear
3:53 PM 39.9 °F 35.8 °F 18.0 °F 41% 30.48 in 10.0 mi East 5.8 mph - N/A   Clear
4:53 PM 37.0 °F - 18.0 °F 46% 30.49 in 10.0 mi Calm Calm - N/A   Clear
5:53 PM 28.9 °F - 21.9 °F 75% 30.52 in 10.0 mi Calm Calm - N/A   Clear
6:53 PM 28.9 °F - 21.9 °F 75% 30.53 in 10.0 mi Calm Calm - N/A   Clear
7:53 PM 28.0 °F - 21.9 °F 78% 30.52 in 10.0 mi Calm Calm - N/A   Clear
8:53 PM 27.0 °F 23.0 °F 21.0 °F 78% 30.49 in 10.0 mi ESE 3.5 mph - N/A   Clear
9:53 PM 27.0 °F - 19.9 °F 75% 30.47 in 10.0 mi Calm Calm - N/A   Clear
10:53 PM 26.1 °F 21.9 °F 21.0 °F 81% 30.43 in 10.0 mi South 3.5 mph - N/A   Partly Cloudy
11:53 PM 26.1 °F - 19.9 °F 78% 30.38 in 10.0 mi Calm Calm - N/A   Partly Cloudy